Weather History for Missoula, MT

Change the Weather History Date:

Monday, May 13, 2013

  Actual Average Record
Temperature  
Mean Temperature 67 °F 53 °F  
Max Temperature 83 °F 67 °F 90 °F (1936)
Min Temperature 50 °F 39 °F 24 °F (1985)
Degree Days  
Heating Degree Days 0 12  
Month to date heating degree days 103 182  
Since 1 July heating degree days 6582 6945  
Cooling Degree Days 2 0  
Month to date cooling degree days 4 0  
Year to date cooling degree days 4 0  
Growing Degree Days 16 (Base 50)    
Moisture  
Dew Point 48 °F    
Average Humidity 56    
Maximum Humidity 83    
Minimum Humidity 28    
Precipitation  
Precipitation 0.21 in 0.06 in 0.72 in (1941)
Month to date precipitation 0.23 0.65  
Year to date precipitation 2.97 4.42  
Snow  
Snow 0.00 in - - ()
Month to date snowfall T  
Year to date snowfall 27.4  
Since 1 July snowfall 48.5  
Snow Depth 0.00 in    
Sea Level Pressure  
Sea Level Pressure 29.93 in    
Wind  
Wind Speed 6 mph (NW)    
Max Wind Speed 35 mph    
Max Gust Speed 44 mph    
Visibility 9 miles    
Events Rain , Thunderstorm    
T = Trace of Precipitation, MM = Missing Value Source: NWS Daily Summary

Daily Weather History Graph

Daily Weather History Graph

Search for Another Location

Airport:

Trip Planner

Search our weather history database for the weather conditions in past years. The results will help you decide how hot, cold, wet, or windy it might be!

Date:

Astronomy

May. 13, 2013 Rise Set
Actual Time 6:03 AM MDT 9:02 PM MDT
Civil Twilight 5:27 AM MDT 9:38 PM MDT
Nautical Twilight 4:41 AM MDT 10:24 PM MDT
Astronomical Twilight 3:46 AM MDT 11:20 PM MDT
Moon 8:51 AM MDT (5/13) No Moon Set
Length of Visible Light 16h 11m
Length of Day
14h 59m
Waxing Crescent, 12% of the Moon is Illuminated
May 13
Waxing Crescent
May 17
First Quarter
May 24
Full
May 31
Last Quarter
Jun 8
New

Hourly Weather History & Observations

Time (MDT) Temp. Dew Point Humidity Pressure Visibility Wind Dir Wind Speed Gust Speed Precip Events Conditions
12:53 AM 63.0 °F 45.0 °F 52% 29.97 in 10.0 mi North 4.6 mph - N/A   Scattered Clouds
1:53 AM 61.0 °F 46.0 °F 58% 29.98 in 10.0 mi NNW 8.1 mph - N/A   Partly Cloudy
2:53 AM 60.1 °F 46.0 °F 60% 29.97 in 10.0 mi NNW 5.8 mph - N/A   Partly Cloudy
3:53 AM 57.9 °F 45.0 °F 62% 29.97 in 10.0 mi NNW 4.6 mph - N/A   Clear
4:53 AM 57.9 °F 46.0 °F 65% 29.98 in 10.0 mi Calm Calm - N/A   Clear
5:53 AM 53.1 °F 46.0 °F 77% 29.99 in 10.0 mi Calm Calm - N/A   Scattered Clouds
6:53 AM 54.0 °F 46.0 °F 75% 30.00 in 10.0 mi SE 4.6 mph - N/A   Mostly Cloudy
7:53 AM 59.0 °F 48.0 °F 67% 30.00 in 10.0 mi ESE 4.6 mph - N/A   Mostly Cloudy
8:53 AM 64.0 °F 48.9 °F 58% 29.98 in 10.0 mi SE 5.8 mph - N/A   Mostly Cloudy
9:53 AM 64.9 °F 48.9 °F 56% 29.98 in 10.0 mi South 4.6 mph - N/A   Overcast
10:53 AM 69.1 °F 48.9 °F 49% 29.95 in 10.0 mi Calm Calm - N/A   Mostly Cloudy
11:53 AM 73.0 °F 46.0 °F 38% 29.92 in 10.0 mi Variable 5.8 mph - N/A   Clear
12:53 PM 75.2 °F 48.2 °F 38% 29.95 in 10.0 mi WNW 3.5 mph - N/A   Mostly Cloudy
2:53 PM 80.1 °F 46.9 °F 31% 29.80 in 10.0 mi NNW 5.8 mph - N/A   Partly Cloudy
3:53 PM 82.0 °F 46.0 °F 28% 29.73 in 10.0 mi Variable 6.9 mph - N/A   Scattered Clouds
4:53 PM 72.0 °F 48.0 °F 43% 29.73 in 10.0 mi WNW 23.0 mph 36.8 mph 0.00 in   Overcast
5:04 PM 68.0 °F 51.8 °F 56% 29.82 in 9.0 mi West 28.8 mph 39.1 mph 0.00 in Thunderstorm Thunderstorm
5:29 PM 66.2 °F 53.6 °F 64% 29.83 in 10.0 mi NW 11.5 mph 19.6 mph 0.00 in Rain Light Rain
5:53 PM 64.4 °F 53.6 °F 68% 29.87 in 10.0 mi NW 16.1 mph 26.5 mph N/A Rain Light Rain
6:34 PM 59.0 °F 53.6 °F 82% 29.83 in 2.0 mi NNE 9.2 mph 24.2 mph 0.08 in Rain Rain
6:44 PM 60.8 °F 53.6 °F 77% 29.86 in 10.0 mi NW 16.1 mph 20.7 mph 0.08 in Rain Light Rain
6:53 PM 62.1 °F 55.9 °F 80% 29.83 in 10.0 mi North 12.7 mph 18.4 mph 0.08 in   Scattered Clouds
7:53 PM 62.1 °F 55.9 °F 80% 29.89 in 10.0 mi West 11.5 mph 21.9 mph 0.00 in   Overcast
8:06 PM 55.4 °F 46.4 °F 72% 29.98 in 8.0 mi NW 27.6 mph 43.7 mph 0.00 in Rain Rain
8:13 PM 53.6 °F 46.4 °F 77% 30.02 in 5.0 mi NW 27.6 mph 42.6 mph 0.02 in Rain Rain
8:53 PM 51.1 °F 48.0 °F 89% 29.99 in 7.0 mi NNW 16.1 mph 24.2 mph 0.09 in Rain Rain
9:53 PM 52.0 °F 46.0 °F 80% 30.03 in 10.0 mi Calm Calm - 0.01 in   Overcast
10:53 PM 52.0 °F 46.0 °F 80% 30.05 in 10.0 mi South 3.5 mph - N/A   Overcast
11:53 PM 53.1 °F 39.9 °F 61% 30.03 in 10.0 mi Calm Calm - N/A   Overcast